QPF
0.01 0.01 0.01 0.02 0.03 0.03 0.03 0.03 0.04 0.04 0.04 0.04 0.05 0.07 0.10 0.15 0.18 0.19 0.20 0.20 0.17 0.14 0.14 0.17 0.15 0.13 0.16 0.20 0.21 0.21 0.21 0.19 0.18 0.16 0.14 0.12 0.12 0.11 0.10 0.08 0.08 0.08 0.08
0.01 0.01 0.01 0.01 0.02 0.03 0.03 0.03 0.04 0.05 0.05 0.05 0.06 0.07 0.09 0.12 0.15 0.15 0.13 0.13 0.12 0.12 0.12 0.14 0.18 0.17 0.15 0.18 0.21 0.23 0.23 0.21 0.20 0.19 0.18 0.17 0.16 0.12 0.10 0.09 0.09 0.08 0.07
0.01 0.01 0.01 0.02 0.03 0.04 0.04 0.04 0.04 0.06 0.06 0.05 0.05 0.07 0.07 0.07 0.09 0.08 0.09 0.10 0.10 0.10 0.08 0.08 0.11 0.17 0.18 0.17 0.19 0.21 0.23 0.23 0.22 0.22 0.24 0.22 0.18 0.14 0.13 0.13 0.12 0.11 0.09
0.01 0.00 0.01 0.01 0.03 0.06 0.07 0.08 0.07 0.06 0.05 0.04 0.05 0.07 0.07 0.08 0.08 0.07 0.06 0.06 0.08 0.10 0.10 0.10 0.10 0.15 0.20 0.21 0.22 0.23 0.21 0.22 0.23 0.26 0.24 0.24 0.20 0.17 0.18 0.20 0.19 0.16 0.13
0.00 0.00 0.01 0.01 0.02 0.03 0.04 0.05 0.06 0.05 0.04 0.03 0.04 0.06 0.08 0.10 0.10 0.10 0.07 0.05 0.05 0.07 0.09 0.12 0.16 0.19 0.22 0.24 0.26 0.31 0.31 0.28 0.28 0.31 0.31 0.28 0.24 0.20 0.19 0.23 0.24 0.22 0.18
0.00 0.00 0.00 0.00 0.01 0.02 0.03 0.03 0.03 0.03 0.03 0.03 0.03 0.04 0.08 0.12 0.11 0.10 0.08 0.06 0.04 0.05 0.06 0.08 0.13 0.18 0.20 0.20 0.24 0.30 0.33 0.35 0.34 0.37 0.36 0.32 0.28 0.25 0.22 0.21 0.24 0.23 0.20
0.00 0.00 0.00 0.00 0.00 0.02 0.02 0.02 0.02 0.01 0.01 0.01 0.01 0.02 0.04 0.06 0.07 0.09 0.09 0.07 0.05 0.05 0.05 0.07 0.09 0.12 0.15 0.18 0.20 0.24 0.29 0.30 0.31 0.34 0.35 0.33 0.30 0.29 0.29 0.31 0.31 0.27 0.23
0.01 0.01 0.01 0.00 0.00 0.01 0.01 0.01 0.01 0.01 0.01 0.01 0.01 0.02 0.03 0.03 0.05 0.07 0.07 0.06 0.05 0.05 0.05 0.06 0.08 0.08 0.11 0.12 0.12 0.14 0.18 0.22 0.23 0.27 0.32 0.36 0.35 0.32 0.31 0.32 0.33 0.32 0.29
0.00 0.00 0.00 0.00 0.00 0.00 0.01 0.01 0.01 0.01 0.01 0.01 0.01 0.02 0.03 0.03 0.04 0.05 0.06 0.06 0.06 0.06 0.05 0.05 0.07 0.07 0.07 0.07 0.07 0.09 0.13 0.18 0.21 0.21 0.25 0.31 0.32 0.30 0.27 0.26 0.25 0.24 0.24
0.00 0.00 0.00 0.01 0.01 0.01 0.01 0.01 0.01 0.01 0.01 0.02 0.01 0.01 0.02 0.02 0.03 0.04 0.06 0.07 0.07 0.06 0.06 0.05 0.05 0.05 0.06 0.07 0.06 0.06 0.07 0.10 0.14 0.16 0.19 0.24 0.28 0.30 0.26 0.24 0.22 0.19 0.17
0.01 0.00 0.00 0.00 0.01 0.01 0.01 0.01 0.01 0.01 0.01 0.02 0.01 0.01 0.02 0.02 0.03 0.03 0.05 0.07 0.07 0.06 0.06 0.05 0.04 0.05 0.05 0.05 0.06 0.07 0.07 0.07 0.09 0.11 0.13 0.17 0.20 0.24 0.23 0.19 0.16 0.14 0.13
0.01 0.01 0.01 0.00 0.00 0.00 0.00 0.01 0.01 0.01 0.01 0.01 0.02 0.02 0.01 0.02 0.03 0.04 0.03 0.04 0.04 0.05 0.05 0.04 0.03 0.04 0.03 0.03 0.03 0.05 0.05 0.06 0.06 0.06 0.08 0.09 0.11 0.12 0.13 0.13 0.12 0.11 0.10
0.01 0.01 0.02 0.01 0.00 0.00 0.00 0.01 0.01 0.01 0.01 0.01 0.01 0.02 0.02 0.02 0.04 0.04 0.03 0.03 0.04 0.04 0.04 0.03 0.03 0.03 0.02 0.02 0.02 0.02 0.02 0.03 0.04 0.04 0.04 0.05 0.05 0.05 0.05 0.06 0.06 0.05 0.05
0.01 0.01 0.01 0.01 0.00 0.00 0.01 0.01 0.01 0.01 0.01 0.01 0.01 0.02 0.02 0.02 0.03 0.04 0.05 0.06 0.05 0.03 0.02 0.03 0.02 0.02 0.02 0.02 0.02 0.02 0.01 0.01 0.01 0.01 0.01 0.02 0.02 0.02 0.02 0.02 0.02 0.02 0.02
0.02 0.02 0.02 0.01 0.01 0.01 0.01 0.01 0.01 0.01 0.01 0.01 0.02 0.02 0.03 0.02 0.03 0.04 0.05 0.05 0.05 0.04 0.02 0.02 0.02 0.01 0.01 0.01 0.01 0.00 0.00 0.01 0.00 0.00 0.00 0.00 0.00 0.00 0.01 0.01 0.01 0.01 0.01
0.03 0.03 0.03 0.02 0.01 0.01 0.01 0.01 0.01 0.01 0.01 0.01 0.01 0.02 0.02 0.02 0.03 0.03 0.03 0.04 0.04 0.04 0.04 0.02 0.01 0.01 0.00 0.00 0.00 0.00 0.00 0.00 0.00 0.00 0.00 0.00 0.00 0.00 0.00 0.00 0.00 0.00 0.01
0.03 0.03 0.02 0.02 0.01 0.01 0.01 0.01 0.01 0.01 0.01 0.01 0.01 0.02 0.02 0.02 0.02 0.03 0.03 0.03 0.03 0.03 0.03 0.02 0.01 0.01 0.00 0.00 0.00 0.00 0.00 0.00 0.00 0.00 0.00 0.00 0.00 0.00 0.00 0.00 0.00 0.00 0.00
0.04 0.03 0.02 0.01 0.01 0.01 0.01 0.01 0.02 0.02 0.02 0.01 0.02 0.02 0.02 0.02 0.03 0.02 0.02 0.03 0.02 0.02 0.02 0.01 0.01 0.01 0.00 0.00 0.00 0.00 0.00 0.00 0.00 0.00 0.00 0.00 0.00 0.00 0.00 0.00 0.00 0.00 0.00
0.03 0.03 0.03 0.02 0.01 0.01 0.01 0.01 0.02 0.02 0.02 0.02 0.03 0.03 0.02 0.02 0.03 0.02 0.02 0.02 0.02 0.02 0.02 0.02 0.01 0.01 0.00 0.00 0.00 0.00 0.00 0.00 0.00 0.00 0.00 0.00 0.00 0.00 0.00 0.00 0.00 0.00 0.00
0.02 0.03 0.03 0.02 0.02 0.01 0.02 0.02 0.02 0.02 0.02 0.02 0.02 0.03 0.03 0.03 0.02 0.02 0.02 0.02 0.02 0.02 0.02 0.02 0.01 0.01 0.00 0.00 0.00 0.00 0.01 0.01 0.00 0.00 0.00 0.00 0.00 0.00 0.00 0.01 0.01 0.01 0.00
0.02 0.02 0.02 0.03 0.03 0.02 0.02 0.02 0.03 0.03 0.03 0.03 0.03 0.03 0.03 0.02 0.02 0.02 0.02 0.02 0.02 0.02 0.02 0.02 0.01 0.00 0.00 0.00 0.00 0.00 0.00 0.00 0.00 0.00 0.00 0.00 0.00 0.00 0.00 0.00 0.01 0.00 0.00
0.02 0.02 0.03 0.04 0.04 0.03 0.03 0.04 0.04 0.04 0.04 0.03 0.03 0.04 0.03 0.01 0.01 0.02 0.02 0.02 0.02 0.02 0.02 0.02 0.01 0.01 0.00 0.00 0.00 0.00 0.00 0.00 0.00 0.00 0.00 0.00 0.00 0.00 0.00 0.00 0.00 0.00 0.00
0.02 0.03 0.04 0.04 0.04 0.04 0.05 0.05 0.04 0.04 0.04 0.04 0.04 0.03 0.03 0.02 0.02 0.03 0.03 0.02 0.02 0.02 0.02 0.02 0.01 0.01 0.00 0.00 0.00 0.00 0.00 0.00 0.00 0.00 0.00 0.00 0.00 0.00 0.00 0.00 0.00 0.00 0.00
0.02 0.03 0.04 0.04 0.04 0.05 0.06 0.05 0.04 0.03 0.03 0.03 0.03 0.03 0.03 0.02 0.02 0.02 0.02 0.02 0.02 0.01 0.01 0.00 0.00 0.00 0.00 0.00 0.00 0.00 0.00 0.00 0.00 0.00 0.00 0.00 0.00 0.00 0.00 0.00 0.00 0.00 0.00
0.02 0.03 0.04 0.03 0.03 0.04 0.05 0.03 0.03 0.03 0.03 0.02 0.02 0.02 0.02 0.01 0.01 0.01 0.01 0.02 0.01 0.01 0.01 0.01 0.00 0.00 0.00 0.00 0.00 0.00 0.00 0.00 0.00 0.00 0.00 0.00 0.00 0.00 0.00 0.00 0.00 0.00 0.00
0.02 0.03 0.04 0.03 0.03 0.04 0.04 0.03 0.02 0.03 0.02 0.02 0.02 0.01 0.01 0.01 0.01 0.00 0.00 0.00 0.00 0.00 0.00 0.00 0.00 0.00 0.00 0.00 0.00 0.00 0.00 0.00 0.00 0.00 0.00 0.00 0.00 0.00 0.00 0.00 0.00 0.00 0.00
MSLP
1014.07 1013.90 1013.62 1013.25 1012.86 1012.50 1012.20 1012.02 1011.96 1012.05 1012.25 1012.55 1012.91 1013.30 1013.69 1014.06 1014.38 1014.64 1014.84 1014.99 1015.08 1015.15 1015.20 1015.28 1015.43 1015.67 1016.03 1016.52 1017.15 1017.89 1018.72 1019.57 1020.40 1021.16 1021.81 1022.32 1022.70 1022.97 1023.14 1023.27 1023.38 1023.51 1023.68
1015.07 1014.89 1014.57 1014.14 1013.67 1013.21 1012.81 1012.53 1012.39 1012.38 1012.51 1012.72 1013.00 1013.31 1013.61 1013.88 1014.10 1014.28 1014.41 1014.51 1014.58 1014.64 1014.72 1014.83 1015.00 1015.27 1015.66 1016.16 1016.80 1017.55 1018.37 1019.24 1020.10 1020.89 1021.59 1022.17 1022.62 1022.94 1023.17 1023.32 1023.45 1023.59 1023.74
1015.82 1015.68 1015.37 1014.93 1014.42 1013.90 1013.43 1013.07 1012.84 1012.76 1012.80 1012.93 1013.13 1013.34 1013.55 1013.72 1013.86 1013.95 1014.01 1014.05 1014.09 1014.13 1014.21 1014.33 1014.52 1014.80 1015.18 1015.67 1016.28 1017.00 1017.80 1018.65 1019.51 1020.33 1021.09 1021.74 1022.27 1022.69 1023.00 1023.24 1023.42 1023.60 1023.78
1016.27 1016.21 1015.96 1015.56 1015.06 1014.53 1014.03 1013.61 1013.32 1013.16 1013.13 1013.19 1013.31 1013.45 1013.57 1013.67 1013.72 1013.74 1013.73 1013.71 1013.69 1013.70 1013.75 1013.85 1014.02 1014.28 1014.62 1015.07 1015.63 1016.29 1017.04 1017.86 1018.71 1019.56 1020.36 1021.10 1021.73 1022.27 1022.70 1023.05 1023.33 1023.58 1023.81
1016.45 1016.50 1016.36 1016.04 1015.60 1015.10 1014.59 1014.15 1013.82 1013.61 1013.52 1013.52 1013.58 1013.66 1013.73 1013.77 1013.76 1013.71 1013.63 1013.55 1013.47 1013.42 1013.42 1013.47 1013.58 1013.78 1014.06 1014.44 1014.92 1015.51 1016.21 1016.98 1017.82 1018.68 1019.54 1020.36 1021.11 1021.77 1022.34 1022.82 1023.22 1023.56 1023.86
1016.42 1016.62 1016.61 1016.42 1016.07 1015.63 1015.15 1014.71 1014.35 1014.10 1013.97 1013.93 1013.96 1014.00 1014.04 1014.04 1013.99 1013.89 1013.76 1013.61 1013.46 1013.34 1013.25 1013.22 1013.26 1013.37 1013.57 1013.86 1014.26 1014.78 1015.41 1016.14 1016.96 1017.84 1018.74 1019.64 1020.49 1021.28 1021.98 1022.59 1023.11 1023.54 1023.92
1016.31 1016.65 1016.80 1016.75 1016.51 1016.15 1015.72 1015.29 1014.92 1014.65 1014.49 1014.42 1014.43 1014.46 1014.49 1014.47 1014.40 1014.28 1014.10 1013.89 1013.67 1013.46 1013.29 1013.16 1013.11 1013.12 1013.23 1013.43 1013.75 1014.19 1014.76 1015.46 1016.25 1017.14 1018.07 1019.02 1019.96 1020.85 1021.65 1022.37 1022.99 1023.51 1023.96
1016.20 1016.70 1017.00 1017.09 1016.96 1016.68 1016.30 1015.89 1015.52 1015.23 1015.05 1014.97 1014.97 1015.00 1015.03 1015.02 1014.95 1014.80 1014.60 1014.34 1014.06 1013.78 1013.52 1013.31 1013.16 1013.08 1013.11 1013.23 1013.48 1013.86 1014.38 1015.03 1015.80 1016.67 1017.61 1018.59 1019.57 1020.51 1021.38 1022.16 1022.85 1023.43 1023.93
1016.18 1016.81 1017.25 1017.46 1017.44 1017.23 1016.90 1016.51 1016.14 1015.84 1015.64 1015.55 1015.54 1015.57 1015.62 1015.62 1015.56 1015.42 1015.20 1014.92 1014.59 1014.26 1013.93 1013.65 1013.43 1013.29 1013.25 1013.32 1013.51 1013.84 1014.31 1014.91 1015.64 1016.48 1017.40 1018.37 1019.34 1020.28 1021.17 1021.97 1022.68 1023.28 1023.80
1016.29 1017.02 1017.56 1017.87 1017.93 1017.79 1017.49 1017.12 1016.75 1016.44 1016.23 1016.12 1016.11 1016.15 1016.20 1016.22 1016.18 1016.05 1015.84 1015.55 1015.21 1014.85 1014.50 1014.18 1013.92 1013.74 1013.66 1013.70 1013.86 1014.15 1014.57 1015.13 1015.81 1016.59 1017.45 1018.36 1019.28 1020.17 1021.02 1021.79 1022.48 1023.07 1023.58
1016.50 1017.31 1017.92 1018.28 1018.40 1018.30 1018.03 1017.68 1017.31 1017.00 1016.78 1016.67 1016.65 1016.69 1016.76 1016.80 1016.77 1016.67 1016.48 1016.21 1015.89 1015.54 1015.19 1014.88 1014.62 1014.44 1014.35 1014.37 1014.51 1014.77 1015.16 1015.66 1016.27 1016.97 1017.74 1018.55 1019.37 1020.18 1020.94 1021.64 1022.27 1022.83 1023.32
1016.80 1017.62 1018.26 1018.65 1018.80 1018.73 1018.50 1018.17 1017.82 1017.52 1017.31 1017.20 1017.18 1017.22 1017.29 1017.34 1017.34 1017.27 1017.12 1016.89 1016.60 1016.30 1015.99 1015.71 1015.48 1015.32 1015.25 1015.28 1015.41 1015.64 1015.99 1016.43 1016.96 1017.56 1018.22 1018.91 1019.61 1020.29 1020.95 1021.56 1022.11 1022.61 1023.06
1017.12 1017.93 1018.55 1018.95 1019.11 1019.07 1018.87 1018.58 1018.27 1018.00 1017.81 1017.72 1017.70 1017.75 1017.83 1017.89 1017.91 1017.87 1017.76 1017.58 1017.36 1017.11 1016.86 1016.64 1016.46 1016.35 1016.31 1016.35 1016.47 1016.68 1016.97 1017.34 1017.78 1018.28 1018.82 1019.39 1019.96 1020.52 1021.06 1021.58 1022.05 1022.49 1022.90
1017.44 1018.20 1018.78 1019.15 1019.32 1019.30 1019.15 1018.92 1018.68 1018.46 1018.32 1018.26 1018.27 1018.33 1018.41 1018.48 1018.52 1018.50 1018.43 1018.31 1018.15 1017.97 1017.79 1017.64 1017.52 1017.45 1017.44 1017.48 1017.60 1017.77 1018.01 1018.32 1018.67 1019.07 1019.50 1019.95 1020.41 1020.87 1021.31 1021.73 1022.13 1022.52 1022.90
1017.77 1018.44 1018.95 1019.29 1019.46 1019.47 1019.38 1019.23 1019.07 1018.94 1018.87 1018.85 1018.89 1018.97 1019.06 1019.13 1019.18 1019.18 1019.14 1019.07 1018.97 1018.86 1018.75 1018.65 1018.59 1018.55 1018.56 1018.61 1018.70 1018.84 1019.03 1019.27 1019.55 1019.87 1020.21 1020.58 1020.95 1021.32 1021.68 1022.04 1022.39 1022.73 1023.08
1018.11 1018.68 1019.12 1019.41 1019.58 1019.63 1019.61 1019.56 1019.50 1019.46 1019.47 1019.51 1019.59 1019.68 1019.77 1019.85 1019.89 1019.91 1019.90 1019.86 1019.81 1019.75 1019.69 1019.65 1019.62 1019.61 1019.62 1019.66 1019.72 1019.83 1019.97 1020.16 1020.38 1020.64 1020.93 1021.24 1021.56 1021.87 1022.19 1022.50 1022.81 1023.12 1023.43
1018.49 1018.96 1019.33 1019.58 1019.74 1019.84 1019.89 1019.93 1019.97 1020.04 1020.12 1020.22 1020.33 1020.43 1020.52 1020.59 1020.64 1020.65 1020.65 1020.64 1020.62 1020.60 1020.59 1020.57 1020.56 1020.56 1020.56 1020.58 1020.62 1020.69 1020.80 1020.95 1021.14 1021.38 1021.64 1021.92 1022.22 1022.51 1022.80 1023.08 1023.36 1023.63 1023.91
1018.95 1019.33 1019.63 1019.85 1020.01 1020.14 1020.26 1020.38 1020.51 1020.65 1020.79 1020.94 1021.07 1021.17 1021.26 1021.31 1021.34 1021.36 1021.37 1021.37 1021.38 1021.39 1021.40 1021.40 1021.40 1021.40 1021.39 1021.39 1021.40 1021.45 1021.53 1021.66 1021.85 1022.07 1022.34 1022.63 1022.92 1023.21 1023.49 1023.75 1023.99 1024.22 1024.45
1019.49 1019.80 1020.04 1020.23 1020.39 1020.55 1020.71 1020.88 1021.07 1021.26 1021.44 1021.60 1021.73 1021.83 1021.90 1021.94 1021.96 1021.97 1021.98 1022.00 1022.04 1022.07 1022.10 1022.13 1022.14 1022.13 1022.11 1022.10 1022.09 1022.12 1022.20 1022.33 1022.51 1022.75 1023.03 1023.33 1023.64 1023.93 1024.20 1024.43 1024.63 1024.81 1024.96
1020.10 1020.36 1020.55 1020.72 1020.87 1021.03 1021.21 1021.40 1021.61 1021.81 1022.00 1022.15 1022.27 1022.35 1022.39 1022.41 1022.42 1022.44 1022.47 1022.51 1022.57 1022.64 1022.71 1022.76 1022.78 1022.78 1022.77 1022.75 1022.74 1022.76 1022.84 1022.97 1023.17 1023.43 1023.72 1024.04 1024.35 1024.63 1024.88 1025.08 1025.22 1025.33 1025.41
1020.71 1020.93 1021.10 1021.24 1021.38 1021.53 1021.70 1021.89 1022.08 1022.27 1022.42 1022.55 1022.63 1022.68 1022.69 1022.70 1022.72 1022.75 1022.80 1022.89 1023.00 1023.11 1023.22 1023.31 1023.37 1023.40 1023.39 1023.38 1023.38 1023.41 1023.48 1023.63 1023.83 1024.09 1024.39 1024.70 1025.00 1025.27 1025.48 1025.63 1025.71 1025.75 1025.74
1021.26 1021.47 1021.62 1021.74 1021.86 1021.98 1022.13 1022.28 1022.44 1022.58 1022.69 1022.77 1022.81 1022.82 1022.83 1022.83 1022.86 1022.92 1023.02 1023.16 1023.33 1023.51 1023.68 1023.83 1023.93 1023.99 1024.02 1024.02 1024.03 1024.07 1024.14 1024.28 1024.48 1024.72 1025.01 1025.30 1025.57 1025.79 1025.96 1026.05 1026.07 1026.03 1025.95
1021.69 1021.89 1022.03 1022.13 1022.23 1022.33 1022.44 1022.55 1022.65 1022.74 1022.80 1022.84 1022.84 1022.83 1022.83 1022.84 1022.90 1023.00 1023.16 1023.37 1023.61 1023.87 1024.11 1024.32 1024.47 1024.58 1024.64 1024.67 1024.69 1024.72 1024.79 1024.91 1025.08 1025.29 1025.53 1025.77 1025.99 1026.17 1026.27 1026.31 1026.27 1026.17 1026.03
1021.95 1022.15 1022.28 1022.37 1022.45 1022.52 1022.60 1022.68 1022.74 1022.79 1022.81 1022.81 1022.79 1022.77 1022.77 1022.80 1022.90 1023.06 1023.28 1023.56 1023.88 1024.20 1024.52 1024.79 1025.00 1025.15 1025.24 1025.29 1025.32 1025.34 1025.38 1025.46 1025.58 1025.73 1025.91 1026.09 1026.25 1026.36 1026.41 1026.40 1026.32 1026.18 1026.01
1022.04 1022.22 1022.35 1022.43 1022.51 1022.57 1022.64 1022.69 1022.73 1022.76 1022.76 1022.74 1022.72 1022.71 1022.73 1022.80 1022.93 1023.14 1023.42 1023.77 1024.15 1024.54 1024.91 1025.23 1025.49 1025.67 1025.79 1025.84 1025.86 1025.85 1025.86 1025.88 1025.94 1026.02 1026.12 1026.23 1026.32 1026.38 1026.38 1026.34 1026.24 1026.10 1025.93
1021.95 1022.12 1022.24 1022.34 1022.42 1022.49 1022.57 1022.63 1022.68 1022.71 1022.72 1022.72 1022.71 1022.72 1022.76 1022.87 1023.04 1023.29 1023.61 1024.00 1024.42 1024.85 1025.26 1025.61 1025.90 1026.10 1026.22 1026.27 1026.26 1026.23 1026.18 1026.14 1026.13 1026.13 1026.16 1026.20 1026.23 1026.24 1026.22 1026.17 1026.08 1025.96 1025.82
Thickness
5706 5707 5706 5707 5706 5706 5705 5705 5704 5704 5704 5704 5703 5703 5701 5700 5700 5699 5696 5695 5695 5696 5697 5696 5698 5699 5700 5700 5700 5699 5696 5695 5694 5689 5685 5683 5684 5684 5685 5686 5686 5687 5686
5698 5697 5696 5696 5696 5695 5694 5695 5694 5694 5694 5695 5696 5695 5695 5694 5693 5691 5688 5687 5687 5689 5691 5691 5693 5694 5694 5694 5693 5693 5691 5690 5689 5686 5680 5675 5673 5674 5676 5676 5677 5678 5677
5689 5686 5685 5685 5685 5683 5683 5683 5683 5684 5685 5686 5687 5687 5687 5686 5684 5682 5681 5680 5680 5681 5683 5684 5686 5687 5688 5688 5688 5687 5686 5684 5683 5684 5681 5675 5672 5669 5666 5666 5667 5667 5667
5680 5677 5675 5673 5672 5672 5673 5672 5673 5674 5675 5677 5679 5678 5678 5677 5674 5673 5673 5672 5672 5673 5675 5676 5678 5680 5681 5682 5682 5683 5683 5681 5678 5677 5678 5678 5677 5669 5660 5656 5656 5656 5656
5673 5668 5665 5663 5662 5662 5662 5662 5663 5664 5665 5667 5668 5668 5668 5667 5666 5665 5664 5664 5664 5665 5667 5668 5670 5672 5674 5674 5675 5676 5677 5678 5676 5674 5672 5670 5668 5668 5663 5653 5648 5645 5644
5664 5660 5657 5655 5653 5652 5652 5652 5652 5652 5654 5656 5658 5658 5658 5657 5656 5655 5655 5656 5657 5657 5658 5659 5660 5663 5665 5665 5667 5668 5670 5671 5671 5670 5669 5667 5665 5663 5661 5654 5645 5639 5634
5657 5652 5649 5647 5643 5642 5641 5641 5642 5642 5643 5645 5646 5647 5647 5647 5646 5646 5646 5647 5647 5647 5647 5649 5650 5652 5653 5655 5657 5659 5661 5662 5663 5663 5662 5662 5661 5660 5657 5650 5640 5632 5625
5650 5645 5640 5637 5634 5632 5631 5632 5632 5632 5633 5634 5634 5635 5636 5636 5636 5635 5635 5636 5636 5636 5637 5639 5640 5641 5642 5645 5647 5649 5651 5652 5654 5653 5653 5654 5653 5651 5650 5645 5637 5627 5618
5641 5636 5631 5628 5625 5623 5621 5621 5622 5623 5623 5623 5624 5624 5624 5625 5624 5624 5624 5625 5625 5626 5627 5628 5630 5631 5633 5635 5637 5638 5639 5641 5643 5643 5644 5643 5643 5642 5641 5638 5635 5629 5618
5633 5628 5623 5619 5617 5615 5613 5612 5612 5613 5612 5613 5613 5613 5613 5614 5614 5614 5614 5614 5614 5616 5617 5618 5620 5621 5623 5626 5627 5628 5629 5630 5631 5632 5633 5633 5633 5632 5631 5628 5625 5624 5618
5627 5620 5615 5612 5609 5607 5605 5604 5603 5603 5602 5602 5602 5602 5602 5602 5603 5603 5603 5603 5604 5606 5608 5608 5609 5611 5612 5615 5616 5618 5620 5620 5620 5621 5622 5621 5622 5621 5620 5619 5617 5614 5611
5619 5613 5609 5605 5602 5599 5597 5595 5594 5594 5593 5592 5592 5592 5592 5592 5593 5593 5593 5594 5595 5596 5597 5598 5599 5601 5602 5604 5606 5608 5609 5610 5610 5611 5611 5611 5611 5610 5609 5608 5607 5604 5601
5611 5605 5600 5596 5593 5590 5588 5586 5585 5584 5584 5583 5583 5583 5582 5582 5582 5582 5583 5584 5585 5586 5587 5588 5588 5590 5591 5593 5594 5596 5597 5598 5600 5600 5601 5600 5600 5600 5598 5598 5596 5594 5592
5603 5597 5592 5587 5584 5581 5579 5578 5576 5575 5575 5574 5574 5573 5572 5572 5572 5572 5573 5574 5575 5575 5576 5577 5578 5579 5581 5582 5584 5585 5586 5587 5588 5588 5589 5589 5588 5588 5587 5586 5585 5584 5581
5596 5590 5585 5580 5576 5573 5570 5569 5567 5566 5565 5565 5564 5563 5562 5562 5562 5562 5562 5563 5564 5565 5566 5567 5567 5568 5569 5570 5573 5575 5576 5576 5576 5576 5575 5574 5573 5572 5574 5576 5574 5573 5572
5589 5582 5577 5572 5568 5565 5562 5560 5558 5556 5556 5556 5555 5554 5553 5553 5553 5552 5552 5553 5554 5554 5555 5556 5557 5557 5556 5555 5559 5563 5565 5565 5565 5565 5564 5563 5562 5560 5559 5558 5558 5558 5559
5583 5576 5570 5565 5560 5557 5554 5552 5550 5548 5547 5546 5546 5545 5545 5544 5544 5544 5544 5544 5545 5545 5545 5546 5546 5545 5542 5544 5547 5550 5554 5555 5554 5554 5555 5555 5552 5553 5551 5547 5545 5544 5542
5577 5569 5563 5557 5552 5548 5546 5544 5542 5540 5539 5538 5538 5537 5537 5536 5536 5535 5535 5535 5536 5536 5537 5537 5537 5536 5533 5533 5537 5540 5544 5544 5543 5543 5543 5543 5542 5541 5541 5542 5539 5537 5533
5570 5562 5556 5550 5545 5542 5539 5537 5534 5533 5532 5531 5530 5529 5529 5529 5528 5527 5527 5527 5527 5528 5528 5529 5529 5528 5525 5524 5528 5532 5535 5535 5534 5534 5532 5533 5531 5527 5528 5532 5531 5528 5524
5560 5553 5548 5543 5539 5535 5533 5531 5528 5526 5525 5524 5523 5522 5523 5522 5521 5520 5520 5520 5520 5521 5522 5521 5520 5520 5518 5516 5520 5523 5530 5528 5528 5526 5523 5519 5519 5518 5519 5523 5523 5521 5519
5552 5547 5541 5537 5533 5530 5528 5525 5523 5520 5519 5518 5517 5517 5517 5516 5515 5514 5514 5514 5515 5514 5514 5514 5513 5512 5511 5510 5512 5515 5521 5524 5524 5523 5521 5514 5510 5510 5510 5512 5513 5509 5509
5546 5541 5537 5532 5528 5525 5523 5520 5517 5516 5514 5513 5513 5512 5512 5513 5511 5510 5509 5510 5510 5510 5510 5509 5509 5508 5506 5504 5504 5506 5508 5511 5515 5515 5514 5508 5504 5504 5504 5505 5502 5502 5503
5542 5537 5532 5528 5523 5521 5519 5516 5514 5512 5511 5510 5509 5509 5508 5508 5508 5507 5507 5507 5508 5510 5510 5509 5509 5507 5505 5501 5499 5501 5502 5503 5506 5505 5501 5500 5500 5499 5501 5498 5498 5500 5503
5538 5534 5530 5526 5521 5518 5515 5513 5511 5510 5509 5508 5507 5506 5506 5506 5505 5506 5507 5507 5508 5508 5508 5508 5507 5505 5504 5503 5502 5503 5503 5500 5503 5503 5499 5497 5497 5498 5496 5496 5498 5499 5498
5536 5532 5528 5525 5521 5517 5514 5511 5509 5508 5507 5506 5506 5506 5506 5506 5504 5503 5500 5502 5500 5500 5502 5504 5504 5504 5501 5492 5489 5493 5499 5500 5500 5500 5503 5503 5503 5502 5500 5499 5497 5496 5496
5536 5531 5527 5524 5520 5516 5513 5511 5510 5509 5508 5507 5506 5507 5507 5505 5505 5503 5499 5491 5493 5492 5492 5492 5494 5493 5490 5488 5488 5489 5490 5492 5493 5498 5503 5502 5502 5500 5499 5498 5497 5495 5494